Theta_e
298 296 295 294 295 294 295 296 296 296 298 302 309 315 315 309 304 303 302 303 304 308 311 310 311 315 314 313 312 314 319 320 319 318 313 311 311 310 311 311 311 308 309
295 295 293 292 292 291 292 293 293 293 294 297 304 313 309 303 301 299 297 298 299 301 302 305 305 306 310 308 307 308 308 313 312 312 308 302 304 306 307 307 303 300 302
295 293 292 290 290 289 289 290 290 291 292 294 306 307 307 305 302 297 294 294 296 297 299 299 300 301 302 299 300 300 301 301 304 304 305 300 297 300 303 302 297 297 297
293 292 290 289 288 287 288 288 289 289 291 292 300 305 302 297 295 293 292 292 293 293 294 294 294 295 296 295 296 297 296 298 298 299 301 304 305 300 297 299 296 295 295
292 291 289 289 288 287 286 286 287 287 288 289 292 295 294 294 293 291 289 289 290 290 290 291 291 292 293 292 292 292 292 293 292 293 293 294 297 298 299 293 292 290 292
289 288 288 288 286 286 286 286 286 285 286 287 287 289 290 290 289 287 286 286 286 287 288 289 289 290 290 290 290 290 290 290 290 290 290 289 289 289 288 287 287 286 289
288 287 286 285 285 285 286 287 285 283 284 284 284 285 285 285 285 285 284 284 284 285 285 286 286 287 288 288 289 288 288 288 287 287 287 288 289 290 289 289 284 284 286
288 287 287 286 286 285 285 284 284 282 282 282 282 283 283 283 283 283 283 283 283 284 285 285 285 285 286 287 287 287 287 286 286 285 286 285 285 285 285 284 283 280 281
287 287 287 286 286 285 284 284 283 282 282 282 281 281 282 282 281 282 282 282 283 285 283 283 283 283 284 285 285 285 285 284 284 284 284 284 283 283 283 283 283 282 279
288 288 288 287 285 284 283 282 282 282 281 281 281 281 281 281 281 282 281 282 283 283 282 282 282 282 283 283 284 283 283 282 283 282 282 281 281 280 280 280 280 280 278
289 289 288 287 286 284 282 282 281 281 280 280 280 280 280 280 281 280 281 281 282 281 281 281 281 281 281 282 282 281 281 281 280 280 280 279 279 278 279 280 279 278 278
291 290 289 288 285 284 282 281 281 281 281 280 280 280 280 280 279 279 280 281 280 281 281 281 281 280 280 281 281 280 280 279 278 278 278 277 279 278 278 278 277 277 277
291 291 289 288 287 284 283 281 281 281 280 280 279 279 279 278 278 279 279 280 280 280 280 280 279 279 279 279 279 280 280 280 278 277 277 277 278 277 278 277 276 277 277
290 290 289 289 288 286 284 282 280 280 280 279 278 278 278 278 278 279 279 279 279 279 279 280 280 279 279 279 279 280 279 278 279 278 277 277 277 278 278 277 276 276 275
288 289 289 289 289 286 283 281 280 279 279 277 277 277 278 278 278 278 278 278 278 278 279 279 280 280 280 280 278 278 278 277 276 277 277 277 277 279 279 276 275 274 274
288 288 288 288 288 287 285 282 280 279 279 277 277 277 277 277 277 277 277 277 277 278 278 278 279 280 280 281 280 278 277 277 276 275 275 275 275 276 276 276 275 274 272
287 288 287 287 286 285 285 282 279 278 277 277 277 277 277 277 277 277 276 277 276 278 277 277 278 278 279 280 280 278 276 276 274 274 274 274 274 275 273 273 272 272 273
288 287 286 285 283 280 280 278 277 277 277 276 276 276 276 276 276 276 276 276 277 276 276 277 277 278 279 279 278 277 275 275 273 273 273 273 273 274 273 270 269 268 268
287 286 284 281 278 277 276 276 275 275 275 275 275 275 276 276 276 276 275 275 276 276 276 277 276 276 277 279 277 276 274 273 272 272 272 273 272 274 274 269 267 265 265
283 282 277 275 274 273 275 275 274 273 273 274 274 275 276 276 275 275 276 276 276 276 277 275 275 275 275 278 277 275 274 271 270 270 270 273 272 273 273 268 266 262 262
280 274 274 275 274 272 273 272 271 272 272 273 274 274 274 275 275 275 276 276 276 275 274 272 272 272 273 275 276 275 272 269 267 267 267 268 272 270 271 269 266 264 261
276 276 273 272 270 272 273 272 271 271 271 272 272 272 272 275 275 275 275 275 273 271 270 269 269 270 271 274 275 275 272 270 265 266 267 267 269 267 269 267 266 264 260
275 272 272 270 268 269 271 270 269 270 270 271 270 270 272 274 275 274 273 273 272 270 269 268 266 266 269 270 273 273 272 270 265 266 268 267 266 264 261 265 263 258 255
274 271 269 269 268 268 271 269 269 270 270 269 270 271 272 273 273 274 273 272 270 269 268 265 264 263 265 266 267 267 265 267 262 261 260 263 262 262 259 256 256 255 253
271 270 270 270 269 267 267 266 269 270 269 270 271 272 272 272 271 271 271 270 267 268 264 260 262 260 258 262 268 264 259 255 259 249 248 249 251 251 251 249 250 251 251
268 268 268 267 266 266 265 265 268 270 270 270 271 271 271 270 269 269 268 273 272 274 273 271 265 260 269 272 273 272 270 269 263 246 244 245 245 247 246 245 246 247 248
Wind_Speed
5 4 3 3 4 7 7 7 6 7 5 3 2 2 3 3 5 5 8 7 6 7 6 4 4 5 4 3 4 3 3 2 3 3 3 3 3 2 3 4 5 7 6
6 5 4 4 5 4 6 6 6 6 4 2 2 2 3 4 5 4 6 7 8 7 6 6 5 5 3 4 5 4 3 2 5 3 2 4 4 4 5 5 5 6 5
12 8 6 4 4 6 6 6 6 6 5 5 1 4 5 3 2 3 4 6 7 7 8 7 5 5 4 4 4 4 4 3 3 6 0 2 3 3 2 4 5 7 7
6 6 6 4 4 4 4 5 6 7 6 7 3 1 2 3 2 3 2 3 7 8 8 6 5 5 4 5 4 4 3 2 3 3 3 3 2 1 4 2 4 6 7
10 9 7 6 5 5 4 4 6 7 7 7 5 3 5 3 3 3 4 5 6 8 6 6 6 6 4 4 6 5 6 4 3 3 3 3 3 3 0 4 3 4 4
8 7 5 5 4 4 4 5 6 6 6 6 7 7 6 5 4 3 3 3 3 5 7 6 6 5 5 5 4 5 6 5 5 4 5 3 3 2 2 1 2 1 1
7 6 6 4 3 3 3 3 4 4 5 6 7 7 6 6 6 4 3 4 3 4 6 5 6 4 5 5 5 6 7 6 5 5 4 5 6 4 2 1 2 2 2
5 6 5 4 2 2 2 2 3 4 6 6 6 5 6 4 4 4 3 3 3 3 4 5 5 6 6 5 5 4 5 6 6 8 6 5 5 5 4 2 2 2 3
5 5 4 4 5 4 3 2 3 4 4 5 5 6 5 6 4 5 4 3 3 3 5 5 6 6 6 6 6 5 6 7 7 7 7 6 5 6 5 5 4 3 3
4 5 5 5 4 4 3 3 3 3 3 5 5 5 5 5 4 4 5 5 5 5 5 6 6 6 6 6 6 6 7 8 6 6 8 7 6 6 5 5 5 5 3
6 6 5 6 6 4 5 4 4 4 4 4 4 5 4 4 4 4 4 5 5 5 5 5 6 6 6 6 6 8 8 9 8 7 8 8 7 5 4 4 5 4 3
5 6 7 5 5 6 5 5 4 5 5 5 5 5 4 4 4 4 5 5 5 5 5 5 6 6 7 6 8 8 7 8 8 7 8 7 6 7 5 4 6 5 3
3 4 3 5 6 6 6 7 6 6 6 6 6 5 5 4 4 4 4 5 5 5 6 6 6 6 6 7 7 7 8 8 9 8 7 7 7 8 6 6 6 5 5
4 3 4 6 6 6 7 7 7 7 7 6 6 6 5 5 4 4 5 5 5 6 5 5 5 6 5 7 6 7 8 8 7 8 8 8 9 9 8 8 8 8 7
4 5 6 6 6 6 6 6 7 8 7 7 6 6 5 5 5 5 5 5 5 5 5 5 6 5 6 5 5 7 6 7 6 6 6 8 10 14 12 7 8 9 7
8 7 7 6 6 6 5 5 6 7 8 7 6 6 6 6 5 6 6 6 6 5 6 6 6 6 6 8 10 7 5 7 6 6 5 7 9 10 12 12 13 12 10
8 7 6 5 3 4 5 5 6 7 8 8 8 8 8 7 6 6 6 6 5 6 6 5 5 6 6 9 9 9 6 7 7 7 6 6 6 8 8 10 12 12 15
8 7 5 4 2 1 1 3 6 7 9 8 9 8 8 7 7 7 7 6 5 5 5 5 5 6 6 9 7 9 6 6 7 7 6 6 7 8 9 8 9 10 9
7 5 4 2 0 1 3 5 4 5 7 8 8 8 9 9 9 9 8 6 6 6 5 5 5 7 6 9 5 5 5 5 6 6 7 6 7 11 14 9 8 7 8
4 6 4 2 3 4 6 6 6 6 7 7 8 8 8 9 9 8 8 7 6 6 5 6 5 6 5 9 8 4 4 4 3 4 5 11 9 11 13 7 7 6 8
7 4 5 6 5 4 5 5 6 9 6 7 8 7 7 7 7 7 5 8 7 7 6 7 4 4 5 5 8 7 4 3 3 3 4 4 9 9 10 10 6 7 7
5 6 5 5 5 6 6 6 7 5 6 7 7 6 6 6 7 9 7 8 9 8 6 6 3 2 3 5 7 8 9 7 4 4 3 3 7 8 9 7 10 11 8
5 5 6 6 5 5 6 7 6 8 8 9 8 7 7 7 8 8 8 7 7 6 6 5 3 2 2 3 7 6 9 8 5 2 3 6 7 8 8 10 10 8 4
8 6 7 8 8 7 7 5 9 9 10 10 10 8 8 7 7 5 6 6 6 6 5 5 4 2 2 2 2 3 5 6 4 5 4 5 6 7 7 4 6 4 3
6 8 11 9 9 8 7 7 9 10 9 9 9 9 7 7 7 5 5 5 2 7 6 4 5 5 2 3 8 7 3 3 5 4 3 3 3 2 3 2 3 1 2
5 6 7 6 6 8 7 7 9 11 11 10 8 8 7 7 6 6 4 9 10 11 10 13 9 1 5 5 8 11 8 6 9 4 2 1 0 1 2 2 3 2 3
Wind_Direction
151 116 77 43 73 42 41 30 19 3 13 17 30 72 71 65 56 45 32 32 24 18 34 53 22 20 35 30 14 332 326 323 358 319 328 328 323 12 58 46 61 46 40
164 154 135 74 61 61 35 28 22 10 4 347 315 91 104 76 73 56 33 28 31 23 40 34 27 21 15 31 24 18 343 333 21 20 27 331 335 14 41 64 57 47 40
177 169 151 102 71 54 30 28 13 4 2 345 337 73 99 85 82 40 35 18 37 34 35 33 29 27 23 34 31 16 25 337 357 45 23 311 277 324 35 71 48 56 52
131 136 146 127 104 67 44 35 22 17 11 360 38 198 132 137 73 79 60 43 39 43 38 34 34 41 33 38 28 29 30 18 30 339 19 31 350 298 321 17 51 54 52
146 149 147 132 101 75 53 36 36 28 14 19 24 63 69 73 82 61 63 36 41 39 36 34 34 40 37 39 43 36 36 31 68 23 351 11 22 20 278 284 337 37 47
110 111 105 111 97 78 63 48 48 33 24 35 34 55 78 86 79 47 52 40 38 29 30 30 35 36 39 40 42 46 50 55 63 53 45 46 45 26 15 339 334 292 318
126 134 141 133 129 116 75 71 59 47 37 51 49 55 71 75 82 63 44 36 27 25 22 27 30 27 32 39 42 51 50 43 53 49 57 53 54 25 22 29 314 321 311
146 158 155 153 175 188 154 109 89 72 50 55 58 55 59 69 70 72 72 67 62 53 37 43 42 36 39 41 43 51 60 54 56 56 52 59 44 36 25 29 359 328 318
177 184 177 191 195 197 206 165 117 94 78 77 71 59 61 63 72 64 59 60 47 69 50 45 46 37 38 43 44 50 56 58 48 45 47 54 38 32 29 28 24 4 344
190 204 205 211 211 207 195 167 146 134 119 99 84 77 76 79 75 76 69 72 65 58 53 49 46 43 42 40 53 50 44 60 53 47 51 43 39 33 24 32 30 34 17
208 217 223 215 209 198 192 182 169 149 128 110 104 105 98 86 82 79 75 75 76 69 62 57 57 51 46 39 61 66 55 64 60 50 51 52 36 35 26 37 30 31 9
219 217 221 213 206 212 201 195 184 172 163 146 136 131 121 110 99 89 85 92 92 73 70 64 67 62 60 53 64 71 63 68 64 52 56 43 38 24 10 30 26 33 12
247 262 282 260 241 215 203 199 191 187 170 160 151 143 133 122 119 117 107 96 93 79 67 67 67 65 58 61 59 66 71 73 73 64 43 36 39 36 11 19 13 11 354
246 260 273 263 263 237 211 202 192 181 172 165 159 154 152 147 140 122 108 101 99 94 82 77 84 78 68 72 70 74 74 70 70 70 58 43 29 27 17 17 6 5 358
299 262 260 266 263 252 228 207 191 181 167 163 160 156 139 139 135 125 116 113 104 100 95 87 90 81 73 80 84 83 92 87 67 62 70 50 33 31 26 21 12 5 2
246 242 242 253 271 275 260 212 196 182 166 161 155 142 142 146 146 136 134 128 123 112 101 86 86 88 83 84 86 92 90 89 80 75 53 51 35 27 28 29 34 21 25
234 231 228 222 233 288 282 231 180 150 157 156 153 158 157 153 147 135 129 129 122 113 96 84 92 88 81 80 85 86 81 87 72 65 47 50 32 20 32 30 34 28 32
225 221 206 194 209 281 268 134 146 158 162 164 162 156 151 146 144 145 141 136 133 124 113 99 93 90 77 75 84 96 88 98 82 72 50 55 38 17 39 26 27 23 29
211 185 158 156 255 179 145 133 131 144 158 163 161 160 157 155 156 156 152 141 133 129 131 121 87 91 80 82 79 98 94 89 82 83 47 43 42 18 36 30 22 12 23
169 174 152 142 166 186 154 145 157 156 167 164 165 162 161 162 163 154 152 147 140 141 130 113 91 73 51 71 81 83 89 89 90 62 49 20 42 19 34 34 24 9 12
178 141 167 199 203 162 148 165 167 190 171 145 147 151 156 153 146 143 144 150 139 122 117 100 80 66 42 47 66 75 85 100 94 75 51 7 37 24 31 36 37 18 25
199 192 189 205 187 185 167 177 193 155 142 139 136 138 142 147 148 150 146 140 130 127 120 114 103 60 28 64 74 79 85 85 90 72 60 358 43 39 26 31 35 28 30
199 184 199 202 208 192 181 181 186 148 146 141 140 142 145 153 156 154 148 141 136 136 139 145 135 142 83 29 69 77 80 74 74 76 74 61 53 45 28 27 37 41 22
212 178 183 209 215 196 198 192 159 156 155 153 151 153 159 152 148 144 143 142 150 149 148 143 159 152 127 121 92 75 62 72 73 61 30 64 62 53 55 22 28 33 23
188 183 198 207 211 183 191 171 160 157 159 158 155 156 156 155 140 128 144 147 130 161 154 163 163 148 165 213 173 146 115 121 128 89 45 31 27 17 6 348 336 356 3
171 188 202 200 189 182 179 170 165 165 161 161 162 161 151 146 139 134 125 158 158 165 167 163 155 241 174 180 162 159 162 131 132 56 80 46 35 276 305 315 308 319 3